Regional Weather Roundup
Issued by NWS

Home | Current Version | Previous Version | Text Only | Print | Product List | Glossary Off
Versions: 1 2 3 4 5 6 7 8 9 10 11 12 13 14 15 16 17 18 19 20 21 22 23 24 25 26 27 28 29 30 31 32 33 34 35 36 37 38 39 40 41 42 43 44 45 46 47 48 49 50

000
ASUS43 KFSD 240702
RWRSD

WEATHER ROUNDUP FOR SOUTH DAKOTA
NATIONAL WEATHER SERVICE SIOUX FALLS SD
200 AM CDT THU JUL 24 2014

NOTE: "FAIR" INDICATES FEW OR NO CLOUDS BELOW 12,000 FEET WITH NO
SIGNIFICANT WEATHER AND/OR OBSTRUCTIONS TO VISIBILITY.


SDZ001>005-009-010-012>017-240800-
NORTHWEST AND NORTH CENTRAL SOUTH DAKOTA

CITY           SKY/WX    TMP DP  RH WIND       PRES   REMARKS
BUFFALO          N/A     71  57  61 E13       29.88F
FAITH            N/A     69  56  62 SE21      30.02F
MOBRIDGE       PTCLDY    69  57  65 SE18G26   30.04F
$$

SDZ012>016-024>037-041>051-057-063-072>074-240800-
SOUTHWEST AND SOUTH CENTRAL SOUTH DAKOTA

CITY           SKY/WX    TMP DP  RH WIND       PRES   REMARKS
RAPID CTY ARPT CLOUDY    69  62  78 E10       30.00F
PIERRE         MOCLDY    68  59  73 SE13      30.05F
CUSTER         MOCLDY    71  61  70 SW5       30.14F
ELLSWORTH AFB  CLOUDY    70  62  76 N10G16    30.03S
PHILIP         MOCLDY    70  58  65 E9        30.01F
PINE RIDGE     MOCLDY    73  63  70 S21G32    30.01F
WINNER         CLOUDY    71  59  65 SE14      30.09F
$$

SDZ004>011-016>023-039-040-240800-
NORTHEAST SOUTH DAKOTA

CITY           SKY/WX    TMP DP  RH WIND       PRES   REMARKS
ABERDEEN       CLEAR     59  57  93 SE6       30.13F
WATERTOWN      CLEAR     63  54  72 SE6       30.17F
SISSETON         N/A     60  58  92 CALM      30.14F
$$

SDZ017-020-022-023-036>040-048>070-240800-
SOUTHEAST SOUTH DAKOTA

CITY           SKY/WX    TMP DP  RH WIND       PRES   REMARKS
SIOUX FALLS    CLEAR     64  55  72 E7        30.17S
HURON          CLEAR     65  55  70 SE8       30.13S
CHAMBERLAIN    MOCLDY    65  59  79 SE10      30.10F
MITCHELL       CLEAR     64  59  83 SE7       30.14F
YANKTON        CLEAR     63  59  88 NE5       30.15F
$$

ABBREVIATIONS USED IN REMARKS
   TC - TEMPERATURE IN CELSIUS
  WCI - WIND CHILL INDEX
   HX - HEAT INDEX
  VSB - VISIBILITY




USA.gov is the U.S. government's official web portal to all federal, state and local government web resources and services.